Time,TemperatureF,DewpointF,PressureIn,WindDirection,WindDirectionDegrees,WindSpeedMPH,WindSpeedGustMPH,Humidity,HourlyPrecipIn,Conditions,Clouds,dailyrainin,SoftwareType,DateUTC
2014-04-17 00:00:00,43.1,25.3,30.28,East,98,0.0,0.0,49,0.00,,,0.00,VWS V15.00,2014-04-17 04:00:00,
2014-04-17 00:01:00,43.1,25.3,30.28,East,98,0.0,0.0,49,0.00,,,0.00,VWS V15.00,2014-04-17 04:01:00,
2014-04-17 00:06:00,42.9,25.6,30.28,East,98,0.0,2.0,50,0.00,,,0.00,VWS V15.00,2014-04-17 04:06:00,
2014-04-17 00:11:00,42.7,25.4,30.28,East,97,0.0,2.0,50,0.00,,,0.00,VWS V15.00,2014-04-17 04:11:00,
2014-04-17 00:16:00,42.6,25.8,30.28,East,91,2.0,5.0,51,0.00,,,0.00,VWS V15.00,2014-04-17 04:16:00,
2014-04-17 00:21:00,42.5,25.7,30.28,ESE,110,0.0,6.0,51,0.00,,,0.00,VWS V15.00,2014-04-17 04:21:00,
2014-04-17 00:26:00,42.5,25.7,30.28,ESE,107,0.0,6.0,51,0.00,,,0.00,VWS V15.00,2014-04-17 04:26:00,
2014-04-17 00:31:00,42.4,25.6,30.28,East,98,0.0,4.0,51,0.00,,,0.00,VWS V15.00,2014-04-17 04:31:00,
2014-04-17 00:36:00,42.3,25.5,30.28,East,90,0.0,4.0,51,0.00,,,0.00,VWS V15.00,2014-04-17 04:36:00,
2014-04-17 00:41:00,42.2,25.4,30.28,East,94,1.0,4.0,51,0.00,,,0.00,VWS V15.00,2014-04-17 04:41:00,
2014-04-17 00:46:00,42.2,25.9,30.28,East,94,0.0,4.0,52,0.00,,,0.00,VWS V15.00,2014-04-17 04:46:00,
2014-04-17 00:51:00,42.0,25.7,30.28,East,95,4.0,5.0,52,0.00,,,0.00,VWS V15.00,2014-04-17 04:51:00,
2014-04-17 00:56:00,42.0,25.7,30.28,ESE,119,5.0,7.0,52,0.00,,,0.00,VWS V15.00,2014-04-17 04:56:00,
2014-04-17 01:01:00,41.9,25.6,30.28,ESE,108,1.0,1.0,52,0.00,,,0.00,VWS V15.00,2014-04-17 05:01:00,
2014-04-17 01:06:00,41.8,25.9,30.28,ESE,119,0.0,6.0,53,0.00,,,0.00,VWS V15.00,2014-04-17 05:06:00,
2014-04-17 01:11:00,41.8,25.9,30.28,ESE,120,1.0,2.0,53,0.00,,,0.00,VWS V15.00,2014-04-17 05:11:00,
2014-04-17 01:16:00,41.8,25.9,30.28,ESE,121,2.0,6.0,53,0.00,,,0.00,VWS V15.00,2014-04-17 05:16:00,
2014-04-17 01:21:00,41.7,25.9,30.28,SE,132,1.0,4.0,53,0.00,,,0.00,VWS V15.00,2014-04-17 05:21:00,
2014-04-17 01:26:00,41.6,25.3,30.28,ESE,113,2.0,7.0,52,0.00,,,0.00,VWS V15.00,2014-04-17 05:26:00,
2014-04-17 01:31:00,41.6,25.8,30.28,ESE,117,5.0,5.0,53,0.00,,,0.00,VWS V15.00,2014-04-17 05:31:00,
2014-04-17 01:36:00,41.6,25.8,30.28,ESE,121,4.0,7.0,53,0.00,,,0.00,VWS V15.00,2014-04-17 05:36:00,
2014-04-17 01:41:00,41.5,25.7,30.28,SE,131,4.0,4.0,53,0.00,,,0.00,VWS V15.00,2014-04-17 05:41:00,
2014-04-17 01:46:00,41.4,26.0,30.28,ESE,106,1.0,6.0,54,0.00,,,0.00,VWS V15.00,2014-04-17 05:46:00,
2014-04-17 01:51:00,41.3,25.9,30.28,SE,126,6.0,7.0,54,0.00,,,0.00,VWS V15.00,2014-04-17 05:51:00,
2014-04-17 01:56:00,41.2,25.8,30.28,ESE,113,2.0,7.0,54,0.00,,,0.00,VWS V15.00,2014-04-17 05:56:00,
2014-04-17 02:01:00,41.0,25.6,30.28,ESE,116,0.0,4.0,54,0.00,,,0.00,VWS V15.00,2014-04-17 06:01:00,
2014-04-17 02:06:00,40.9,26.0,30.27,SE,128,4.0,6.0,55,0.00,,,0.00,VWS V15.00,2014-04-17 06:06:00,
2014-04-17 02:11:00,40.9,26.0,30.27,SE,126,0.0,6.0,55,0.00,,,0.00,VWS V15.00,2014-04-17 06:11:00,
2014-04-17 02:16:00,40.9,26.0,30.27,ESE,117,4.0,6.0,55,0.00,,,0.00,VWS V15.00,2014-04-17 06:16:00,
2014-04-17 02:21:00,40.8,25.9,30.27,SE,125,0.0,4.0,55,0.00,,,0.00,VWS V15.00,2014-04-17 06:21:00,
2014-04-17 02:26:00,40.7,25.8,30.27,SSE,155,4.0,7.0,55,0.00,,,0.00,VWS V15.00,2014-04-17 06:26:00,
2014-04-17 02:31:00,40.7,25.8,30.27,ESE,115,1.0,7.0,55,0.00,,,0.00,VWS V15.00,2014-04-17 06:31:00,
2014-04-17 02:36:00,40.7,25.8,30.26,SE,128,0.0,7.0,55,0.00,,,0.00,VWS V15.00,2014-04-17 06:36:00,
2014-04-17 02:41:00,40.8,25.9,30.26,ESE,123,2.0,7.0,55,0.00,,,0.00,VWS V15.00,2014-04-17 06:41:00,
2014-04-17 02:46:00,40.8,25.9,30.26,SE,128,4.0,8.0,55,0.00,,,0.00,VWS V15.00,2014-04-17 06:46:00,
2014-04-17 02:51:00,40.7,26.2,30.26,ESE,119,5.0,7.0,56,0.00,,,0.00,VWS V15.00,2014-04-17 06:51:00,
2014-04-17 02:56:00,40.7,26.2,30.26,ESE,122,1.0,7.0,56,0.00,,,0.00,VWS V15.00,2014-04-17 06:56:00,
2014-04-17 03:01:00,40.6,26.1,30.26,SE,140,0.0,4.0,56,0.00,,,0.00,VWS V15.00,2014-04-17 07:01:00,
2014-04-17 03:06:00,40.6,26.1,30.26,ESE,109,5.0,7.0,56,0.00,,,0.00,VWS V15.00,2014-04-17 07:06:00,
2014-04-17 03:11:00,40.6,26.1,30.26,SE,131,2.0,7.0,56,0.00,,,0.00,VWS V15.00,2014-04-17 07:11:00,
2014-04-17 03:16:00,40.7,25.8,30.26,ESE,122,6.0,9.0,55,0.00,,,0.00,VWS V15.00,2014-04-17 07:16:00,
2014-04-17 03:21:00,40.8,25.9,30.26,ESE,123,5.0,7.0,55,0.00,,,0.00,VWS V15.00,2014-04-17 07:21:00,
2014-04-17 03:26:00,40.9,26.0,30.26,ESE,121,1.0,8.0,55,0.00,,,0.00,VWS V15.00,2014-04-17 07:26:00,
2014-04-17 03:31:00,40.8,25.9,30.26,SE,136,6.0,8.0,55,0.00,,,0.00,VWS V15.00,2014-04-17 07:31:00,
2014-04-17 03:36:00,40.9,26.0,30.27,SE,135,9.0,9.0,55,0.00,,,0.00,VWS V15.00,2014-04-17 07:36:00,
2014-04-17 03:41:00,41.1,25.7,30.27,SE,142,4.0,11.0,54,0.00,,,0.00,VWS V15.00,2014-04-17 07:41:00,
2014-04-17 03:46:00,41.2,25.8,30.27,SE,130,1.0,11.0,54,0.00,,,0.00,VWS V15.00,2014-04-17 07:46:00,
2014-04-17 03:51:00,41.1,25.7,30.27,SE,129,2.0,6.0,54,0.00,,,0.00,VWS V15.00,2014-04-17 07:51:00,
2014-04-17 03:56:00,41.1,25.7,30.27,ESE,121,7.0,9.0,54,0.00,,,0.00,VWS V15.00,2014-04-17 07:56:00,
2014-04-17 04:01:00,41.1,25.7,30.27,SSE,151,4.0,11.0,54,0.00,,,0.00,VWS V15.00,2014-04-17 08:01:00,
2014-04-17 04:06:00,41.1,25.7,30.27,SSE,165,5.0,11.0,54,0.00,,,0.00,VWS V15.00,2014-04-17 08:06:00,
2014-04-17 04:11:00,41.1,25.7,30.27,ESE,112,8.0,8.0,54,0.00,,,0.00,VWS V15.00,2014-04-17 08:11:00,
2014-04-17 04:16:00,41.1,25.7,30.28,SSE,159,4.0,11.0,54,0.00,,,0.00,VWS V15.00,2014-04-17 08:16:00,
2014-04-17 04:21:00,41.2,25.8,30.28,SSE,155,5.0,6.0,54,0.00,,,0.00,VWS V15.00,2014-04-17 08:21:00,
2014-04-17 04:26:00,41.1,26.2,30.28,SE,127,5.0,8.0,55,0.00,,,0.00,VWS V15.00,2014-04-17 08:26:00,
2014-04-17 04:31:00,40.9,26.0,30.28,SSE,147,6.0,6.0,55,0.00,,,0.00,VWS V15.00,2014-04-17 08:31:00,
2014-04-17 04:36:00,40.9,26.0,30.28,SSE,158,4.0,11.0,55,0.00,,,0.00,VWS V15.00,2014-04-17 08:36:00,
2014-04-17 04:41:00,40.9,26.0,30.28,SE,142,0.0,2.0,55,0.00,,,0.00,VWS V15.00,2014-04-17 08:41:00,
2014-04-17 04:46:00,40.7,26.2,30.28,SE,130,1.0,5.0,56,0.00,,,0.00,VWS V15.00,2014-04-17 08:46:00,
2014-04-17 04:51:00,40.6,25.7,30.28,SE,136,0.0,1.0,55,0.00,,,0.00,VWS V15.00,2014-04-17 08:51:00,
2014-04-17 04:56:00,40.5,26.5,30.28,SE,132,2.0,5.0,57,0.00,,,0.00,VWS V15.00,2014-04-17 08:56:00,
2014-04-17 05:01:00,40.3,26.3,30.28,SE,145,2.0,5.0,57,0.00,,,0.00,VWS V15.00,2014-04-17 09:01:00,
2014-04-17 05:06:00,40.2,25.8,30.28,SSE,150,0.0,6.0,56,0.00,,,0.00,VWS V15.00,2014-04-17 09:06:00,
2014-04-17 05:11:00,40.2,26.2,30.28,SE,130,4.0,6.0,57,0.00,,,0.00,VWS V15.00,2014-04-17 09:11:00,
2014-04-17 05:16:00,40.1,25.7,30.29,ESE,121,0.0,6.0,56,0.00,,,0.00,VWS V15.00,2014-04-17 09:16:00,
2014-04-17 05:21:00,40.1,26.1,30.29,SSE,150,0.0,0.0,57,0.00,,,0.00,VWS V15.00,2014-04-17 09:21:00,
2014-04-17 05:26:00,40.1,26.1,30.29,SSE,148,0.0,5.0,57,0.00,,,0.00,VWS V15.00,2014-04-17 09:26:00,
2014-04-17 05:31:00,39.9,26.3,30.29,SE,142,1.0,2.0,58,0.00,,,0.00,VWS V15.00,2014-04-17 09:31:00,
2014-04-17 05:36:00,39.8,26.7,30.29,SE,133,0.0,6.0,59,0.00,,,0.00,VWS V15.00,2014-04-17 09:36:00,
2014-04-17 05:41:00,39.8,25.8,30.29,SE,138,8.0,8.0,57,0.00,,,0.00,VWS V15.00,2014-04-17 09:41:00,
2014-04-17 05:46:00,40.0,26.0,30.29,SE,140,0.0,8.0,57,0.00,,,0.00,VWS V15.00,2014-04-17 09:46:00,
2014-04-17 05:51:00,40.0,26.0,30.29,SSE,159,6.0,6.0,57,0.00,,,0.00,VWS V15.00,2014-04-17 09:51:00,
2014-04-17 05:56:00,40.0,26.0,30.29,SE,138,4.0,6.0,57,0.00,,,0.00,VWS V15.00,2014-04-17 09:56:00,
2014-04-17 06:01:00,39.9,25.9,30.29,SSE,147,0.0,4.0,57,0.00,,,0.00,VWS V15.00,2014-04-17 10:01:00,
2014-04-17 06:06:00,39.9,25.9,30.29,SE,132,4.0,7.0,57,0.00,,,0.00,VWS V15.00,2014-04-17 10:06:00,
2014-04-17 06:11:00,40.0,26.0,30.29,SE,136,5.0,8.0,57,0.00,,,0.00,VWS V15.00,2014-04-17 10:11:00,
2014-04-17 06:16:00,39.9,25.9,30.30,SE,144,5.0,8.0,57,0.00,,,0.00,VWS V15.00,2014-04-17 10:16:00,
2014-04-17 06:21:00,40.0,26.0,30.30,SSE,150,4.0,5.0,57,0.00,,,0.00,VWS V15.00,2014-04-17 10:21:00,
2014-04-17 06:26:00,40.0,26.4,30.30,ESE,119,2.0,7.0,58,0.00,,,0.00,VWS V15.00,2014-04-17 10:26:00,
2014-04-17 06:31:00,40.1,26.5,30.30,SE,146,5.0,5.0,58,0.00,,,0.00,VWS V15.00,2014-04-17 10:31:00,
2014-04-17 06:36:00,40.0,26.4,30.31,SE,143,4.0,7.0,58,0.00,,,0.00,VWS V15.00,2014-04-17 10:36:00,
2014-04-17 06:41:00,39.8,26.7,30.31,SSE,149,0.0,2.0,59,0.00,,,0.00,VWS V15.00,2014-04-17 10:41:00,
2014-04-17 06:46:00,39.7,27.0,30.31,SE,146,1.0,5.0,60,0.00,,,0.00,VWS V15.00,2014-04-17 10:46:00,
2014-04-17 06:51:00,39.7,26.6,30.31,SE,145,1.0,8.0,59,0.00,,,0.00,VWS V15.00,2014-04-17 10:51:00,
2014-04-17 06:56:00,39.8,27.1,30.31,SSE,163,4.0,8.0,60,0.00,,,0.00,VWS V15.00,2014-04-17 10:56:00,
2014-04-17 07:01:00,39.8,27.5,30.31,SE,129,0.0,1.0,61,0.00,,,0.00,VWS V15.00,2014-04-17 11:01:00,
2014-04-17 07:06:00,39.6,27.7,30.31,SE,136,0.0,5.0,62,0.00,,,0.00,VWS V15.00,2014-04-17 11:06:00,
2014-04-17 07:11:00,39.5,27.2,30.32,SE,140,4.0,6.0,61,0.00,,,0.00,VWS V15.00,2014-04-17 11:11:00,
2014-04-17 07:16:00,39.5,27.6,30.32,SE,129,2.0,6.0,62,0.00,,,0.00,VWS V15.00,2014-04-17 11:16:00,
2014-04-17 07:21:00,39.5,27.6,30.32,SSE,150,2.0,6.0,62,0.00,,,0.00,VWS V15.00,2014-04-17 11:21:00,
2014-04-17 07:26:00,39.4,27.9,30.32,SSE,149,0.0,6.0,63,0.00,,,0.00,VWS V15.00,2014-04-17 11:26:00,
2014-04-17 07:31:00,39.3,27.8,30.32,SE,146,1.0,1.0,63,0.00,,,0.00,VWS V15.00,2014-04-17 11:31:00,
2014-04-17 07:36:00,39.2,27.7,30.32,SE,146,1.0,4.0,63,0.00,,,0.00,VWS V15.00,2014-04-17 11:36:00,
2014-04-17 07:41:00,39.2,28.1,30.33,SE,146,0.0,1.0,64,0.00,,,0.00,VWS V15.00,2014-04-17 11:41:00,
2014-04-17 07:46:00,39.2,28.1,30.33,SE,146,2.0,2.0,64,0.00,,,0.00,VWS V15.00,2014-04-17 11:46:00,
2014-04-17 07:51:00,39.2,28.4,30.33,SE,146,0.0,0.0,65,0.00,,,0.00,VWS V15.00,2014-04-17 11:51:00,
2014-04-17 07:56:00,39.5,28.7,30.33,SE,146,0.0,5.0,65,0.00,,,0.00,VWS V15.00,2014-04-17 11:56:00,
2014-04-17 08:01:00,39.7,28.5,30.33,SE,146,1.0,4.0,64,0.00,,,0.00,VWS V15.00,2014-04-17 12:01:00,
2014-04-17 08:06:00,40.4,29.6,30.34,SE,146,0.0,5.0,65,0.00,,,0.00,VWS V15.00,2014-04-17 12:06:00,
2014-04-17 08:11:00,41.1,29.9,30.34,SSE,147,0.0,0.0,64,0.00,,,0.00,VWS V15.00,2014-04-17 12:11:00,
2014-04-17 08:16:00,41.9,29.9,30.34,SSE,162,1.0,6.0,62,0.00,,,0.00,VWS V15.00,2014-04-17 12:16:00,
2014-04-17 08:21:00,42.7,30.2,30.34,SSE,157,2.0,6.0,61,0.00,,,0.00,VWS V15.00,2014-04-17 12:21:00,
2014-04-17 08:25:00,43.3,30.4,30.34,SSE,150,4.0,8.0,60,0.00,,,0.00,VWS V15.00,2014-04-17 12:25:00,
2014-04-17 08:30:00,43.9,30.9,30.34,SSE,151,1.0,5.0,60,0.00,,,0.00,VWS V15.00,2014-04-17 12:30:00,
2014-04-17 08:35:00,44.6,31.6,30.34,SSE,157,0.0,5.0,60,0.00,,,0.00,VWS V15.00,2014-04-17 12:35:00,
2014-04-17 08:40:00,45.2,32.6,30.34,SE,132,0.0,0.0,61,0.00,,,0.00,VWS V15.00,2014-04-17 12:40:00,
2014-04-17 08:45:00,45.8,31.9,30.35,SSE,155,5.0,6.0,58,0.00,,,0.00,VWS V15.00,2014-04-17 12:45:00,
2014-04-17 08:50:00,46.4,32.9,30.35,South,182,3.0,5.0,59,0.00,,,0.00,VWS V15.00,2014-04-17 12:50:00,
2014-04-17 08:55:00,47.2,32.8,30.35,SSE,164,4.0,7.0,57,0.00,,,0.00,VWS V15.00,2014-04-17 12:55:00,
2014-04-17 09:00:00,47.9,33.0,30.35,South,182,2.0,4.0,56,0.00,,,0.00,VWS V15.00,2014-04-17 13:00:00,
2014-04-17 09:05:00,48.5,33.1,30.35,WSW,239,2.0,7.0,55,0.00,,,0.00,VWS V15.00,2014-04-17 13:05:00,
2014-04-17 09:10:00,49.0,34.0,30.35,South,175,0.0,0.0,56,0.00,,,0.00,VWS V15.00,2014-04-17 13:10:00,
2014-04-17 09:15:00,49.6,33.7,30.35,SSW,194,1.0,8.0,54,0.00,,,0.00,VWS V15.00,2014-04-17 13:15:00,
2014-04-17 09:20:00,50.0,34.5,30.35,South,175,4.0,6.0,55,0.00,,,0.00,VWS V15.00,2014-04-17 13:20:00,
2014-04-17 09:25:00,50.5,34.0,30.35,South,190,5.0,9.0,53,0.00,,,0.00,VWS V15.00,2014-04-17 13:25:00,
2014-04-17 09:30:00,50.9,33.9,30.35,SSE,167,4.0,5.0,52,0.00,,,0.00,VWS V15.00,2014-04-17 13:30:00,
2014-04-17 09:35:00,51.2,34.7,30.35,South,173,2.0,8.0,53,0.00,,,0.00,VWS V15.00,2014-04-17 13:35:00,
2014-04-17 09:40:00,51.5,34.5,30.35,South,186,2.0,5.0,52,0.00,,,0.00,VWS V15.00,2014-04-17 13:40:00,
2014-04-17 09:45:00,51.8,34.3,30.35,SW,220,8.0,9.0,51,0.00,,,0.00,VWS V15.00,2014-04-17 13:45:00,
2014-04-17 09:50:00,52.1,34.5,30.35,SW,232,5.0,5.0,51,0.00,,,0.00,VWS V15.00,2014-04-17 13:50:00,
2014-04-17 09:55:00,52.4,34.8,30.35,South,178,2.0,8.0,51,0.00,,,0.00,VWS V15.00,2014-04-17 13:55:00,
2014-04-17 10:00:00,52.5,34.4,30.35,South,182,3.0,6.0,50,0.00,,,0.00,VWS V15.00,2014-04-17 14:00:00,
2014-04-17 10:05:00,52.5,34.9,30.35,SSW,196,2.0,12.0,51,0.00,,,0.00,VWS V15.00,2014-04-17 14:05:00,
2014-04-17 10:10:00,52.8,35.2,30.35,South,186,4.0,5.0,51,0.00,,,0.00,VWS V15.00,2014-04-17 14:10:00,
2014-04-17 10:15:00,52.9,35.3,30.35,SW,215,2.0,8.0,51,0.00,,,0.00,VWS V15.00,2014-04-17 14:15:00,
2014-04-17 10:20:00,53.3,35.2,30.36,SW,225,8.0,10.0,50,0.00,,,0.00,VWS V15.00,2014-04-17 14:20:00,
2014-04-17 10:25:00,53.5,36.3,30.36,SSW,212,5.0,11.0,52,0.00,,,0.00,VWS V15.00,2014-04-17 14:25:00,
2014-04-17 10:30:00,53.8,35.6,30.36,South,186,3.0,7.0,50,0.00,,,0.00,VWS V15.00,2014-04-17 14:30:00,
2014-04-17 10:35:00,54.3,36.1,30.36,South,185,3.0,9.0,50,0.00,,,0.00,VWS V15.00,2014-04-17 14:35:00,
2014-04-17 10:40:00,54.6,36.8,30.36,WSW,258,8.0,8.0,51,0.00,,,0.00,VWS V15.00,2014-04-17 14:40:00,
2014-04-17 10:45:00,55.0,35.7,30.36,SW,214,5.0,13.0,48,0.00,,,0.00,VWS V15.00,2014-04-17 14:45:00,
2014-04-17 10:50:00,55.0,36.2,30.36,South,184,5.0,8.0,49,0.00,,,0.00,VWS V15.00,2014-04-17 14:50:00,
2014-04-17 10:55:00,55.3,36.0,30.36,WSW,258,3.0,9.0,48,0.00,,,0.00,VWS V15.00,2014-04-17 14:55:00,
2014-04-17 11:00:00,55.7,36.3,30.36,SSW,200,6.0,7.0,48,0.00,,,0.00,VWS V15.00,2014-04-17 15:00:00,
2014-04-17 11:05:00,55.8,35.9,30.36,WSW,240,6.0,10.0,47,0.00,,,0.00,VWS V15.00,2014-04-17 15:05:00,
2014-04-17 11:10:00,56.0,37.1,30.36,South,181,2.0,5.0,49,0.00,,,0.00,VWS V15.00,2014-04-17 15:10:00,
2014-04-17 11:15:00,56.5,37.1,30.36,South,175,4.0,10.0,48,0.00,,,0.00,VWS V15.00,2014-04-17 15:15:00,
2014-04-17 11:20:00,56.7,37.2,30.36,South,175,0.0,5.0,48,0.00,,,0.00,VWS V15.00,2014-04-17 15:20:00,
2014-04-17 11:25:00,56.9,37.4,30.36,SW,216,5.0,10.0,48,0.00,,,0.00,VWS V15.00,2014-04-17 15:25:00,
2014-04-17 11:30:00,57.2,37.2,30.36,South,176,2.0,5.0,47,0.00,,,0.00,VWS V15.00,2014-04-17 15:30:00,
2014-04-17 11:35:00,57.4,37.3,30.36,SSW,213,5.0,9.0,47,0.00,,,0.00,VWS V15.00,2014-04-17 15:35:00,
2014-04-17 11:40:00,57.5,38.5,30.36,SSE,163,2.0,4.0,49,0.00,,,0.00,VWS V15.00,2014-04-17 15:40:00,
2014-04-17 11:45:00,58.2,38.6,30.36,SW,223,2.0,9.0,48,0.00,,,0.00,VWS V15.00,2014-04-17 15:45:00,
2014-04-17 11:50:00,58.5,38.9,30.36,SSW,202,2.0,4.0,48,0.00,,,0.00,VWS V15.00,2014-04-17 15:50:00,
2014-04-17 11:55:00,58.4,37.7,30.36,SSE,167,4.0,11.0,46,0.00,,,0.00,VWS V15.00,2014-04-17 15:55:00,
2014-04-17 12:00:00,58.5,38.9,30.36,West,279,0.0,3.0,48,0.00,,,0.00,VWS V15.00,2014-04-17 16:00:00,
2014-04-17 12:05:00,59.0,39.4,30.36,SW,221,5.0,7.0,48,0.00,,,0.00,VWS V15.00,2014-04-17 16:05:00,
2014-04-17 12:10:00,59.4,40.8,30.36,SW,227,5.0,5.0,50,0.00,,,0.00,VWS V15.00,2014-04-17 16:10:00,
2014-04-17 12:15:00,59.8,40.1,30.36,South,169,8.0,11.0,48,0.00,,,0.00,VWS V15.00,2014-04-17 16:15:00,
2014-04-17 12:20:00,60.0,40.3,30.36,WSW,239,5.0,6.0,48,0.00,,,0.00,VWS V15.00,2014-04-17 16:20:00,
2014-04-17 12:25:00,60.2,38.8,30.36,SSW,204,6.0,10.0,45,0.00,,,0.00,VWS V15.00,2014-04-17 16:25:00,
2014-04-17 12:30:00,60.3,40.0,30.36,SSE,163,8.0,9.0,47,0.00,,,0.00,VWS V15.00,2014-04-17 16:30:00,
2014-04-17 12:35:00,60.3,38.9,30.36,South,184,5.0,9.0,45,0.00,,,0.00,VWS V15.00,2014-04-17 16:35:00,
2014-04-17 12:40:00,60.5,37.9,30.36,South,180,1.0,5.0,43,0.00,,,0.00,VWS V15.00,2014-04-17 16:40:00,
2014-04-17 12:45:00,60.6,39.7,30.35,SSW,192,3.0,7.0,46,0.00,,,0.00,VWS V15.00,2014-04-17 16:45:00,
2014-04-17 12:50:00,60.8,38.8,30.35,SSE,153,7.0,7.0,44,0.00,,,0.00,VWS V15.00,2014-04-17 16:50:00,
2014-04-17 12:55:00,60.9,39.4,30.35,West,259,4.0,7.0,45,0.00,,,0.00,VWS V15.00,2014-04-17 16:55:00,
2014-04-17 13:00:00,60.9,40.0,30.35,SSE,166,5.0,7.0,46,0.00,,,0.00,VWS V15.00,2014-04-17 17:00:00,
2014-04-17 13:05:00,61.2,39.7,30.35,South,188,0.0,8.0,45,0.00,,,0.00,VWS V15.00,2014-04-17 17:05:00,
2014-04-17 13:10:00,61.6,40.6,30.34,WSW,247,4.0,6.0,46,0.00,,,0.00,VWS V15.00,2014-04-17 17:10:00,
2014-04-17 13:15:00,61.9,40.3,30.34,SSE,161,6.0,7.0,45,0.00,,,0.00,VWS V15.00,2014-04-17 17:15:00,
2014-04-17 13:20:00,62.2,40.0,30.34,South,180,3.0,4.0,44,0.00,,,0.00,VWS V15.00,2014-04-17 17:20:00,
2014-04-17 13:25:00,62.2,42.8,30.34,WSW,244,0.0,9.0,49,0.00,,,0.00,VWS V15.00,2014-04-17 17:25:00,
2014-04-17 13:30:00,62.4,39.6,30.34,South,187,3.0,5.0,43,0.00,,,0.00,VWS V15.00,2014-04-17 17:30:00,
2014-04-17 13:35:00,62.3,38.9,30.33,South,187,1.0,7.0,42,0.00,,,0.00,VWS V15.00,2014-04-17 17:35:00,
2014-04-17 13:40:00,62.4,38.4,30.33,South,188,3.0,3.0,41,0.00,,,0.00,VWS V15.00,2014-04-17 17:40:00,
2014-04-17 13:45:00,62.4,39.6,30.33,SSE,149,7.0,10.0,43,0.00,,,0.00,VWS V15.00,2014-04-17 17:45:00,
2014-04-17 13:50:00,62.6,38.6,30.33,WSW,253,2.0,4.0,41,0.00,,,0.00,VWS V15.00,2014-04-17 17:50:00,
2014-04-17 13:55:00,62.7,39.9,30.33,South,169,6.0,9.0,43,0.00,,,0.00,VWS V15.00,2014-04-17 17:55:00,
2014-04-17 14:00:00,62.8,38.8,30.33,South,180,2.0,4.0,41,0.00,,,0.00,VWS V15.00,2014-04-17 18:00:00,
2014-04-17 14:05:00,62.7,40.5,30.33,South,169,4.0,8.0,44,0.00,,,0.00,VWS V15.00,2014-04-17 18:05:00,
2014-04-17 14:10:00,62.7,38.7,30.33,SW,217,3.0,7.0,41,0.00,,,0.00,VWS V15.00,2014-04-17 18:10:00,
2014-04-17 14:15:00,63.0,40.8,30.32,WSW,243,5.0,8.0,44,0.00,,,0.00,VWS V15.00,2014-04-17 18:15:00,
2014-04-17 14:20:00,63.4,39.9,30.32,SSW,195,3.0,4.0,42,0.00,,,0.00,VWS V15.00,2014-04-17 18:20:00,
2014-04-17 14:25:00,63.4,39.3,30.32,South,170,1.0,5.0,41,0.00,,,0.00,VWS V15.00,2014-04-17 18:25:00,
2014-04-17 14:30:00,63.7,42.0,30.32,SSE,159,2.0,7.0,45,0.00,,,0.00,VWS V15.00,2014-04-17 18:30:00,
2014-04-17 14:35:00,63.8,39.7,30.32,SSW,198,4.0,8.0,41,0.00,,,0.00,VWS V15.00,2014-04-17 18:35:00,
2014-04-17 14:40:00,63.8,39.0,30.32,NW,315,5.0,5.0,40,0.00,,,0.00,VWS V15.00,2014-04-17 18:40:00,
2014-04-17 14:45:00,64.1,41.2,30.32,WSW,244,5.0,9.0,43,0.00,,,0.00,VWS V15.00,2014-04-17 18:45:00,
2014-04-17 14:50:00,64.3,41.9,30.32,South,183,4.0,12.0,44,0.00,,,0.00,VWS V15.00,2014-04-17 18:50:00,
2014-04-17 14:55:00,64.2,40.7,30.31,SE,141,0.0,12.0,42,0.00,,,0.00,VWS V15.00,2014-04-17 18:55:00,
2014-04-17 15:00:00,64.7,41.1,30.31,SSE,155,10.0,10.0,42,0.00,,,0.00,VWS V15.00,2014-04-17 19:00:00,
2014-04-17 15:05:00,64.7,39.8,30.31,SSE,166,5.0,10.0,40,0.00,,,0.00,VWS V15.00,2014-04-17 19:05:00,
2014-04-17 15:10:00,64.5,39.7,30.31,SE,130,0.0,1.0,40,0.00,,,0.00,VWS V15.00,2014-04-17 19:10:00,
2014-04-17 15:15:00,64.6,39.8,30.31,South,184,0.0,7.0,40,0.00,,,0.00,VWS V15.00,2014-04-17 19:15:00,
2014-04-17 15:20:00,64.6,38.4,30.31,South,171,2.0,6.0,38,0.00,,,0.00,VWS V15.00,2014-04-17 19:20:00,
2014-04-17 15:25:00,64.6,39.8,30.30,SW,231,1.0,6.0,40,0.00,,,0.00,VWS V15.00,2014-04-17 19:25:00,